TimeMST,TemperatureF,Dew PointF,Humidity,Sea Level PressureIn,VisibilityMPH,Wind Direction,Wind SpeedMPH,Gust SpeedMPH,PrecipitationIn,Events,Conditions,WindDirDegrees,DateUTC
12:07 AM,-0.4,-5.8,78,29.85,10.0,NE,8.1,-,N/A,,Mostly Cloudy,40,2013-01-01 07:07:00
12:16 AM,-2.2,-5.8,85,29.85,10.0,NE,9.2,-,N/A,,Scattered Clouds,50,2013-01-01 07:16:00
12:53 AM,-2.9,-8.0,79,29.97,10.0,NE,9.2,-,N/A,,Clear,40,2013-01-01 07:53:00
1:32 AM,-2.2,-7.6,78,29.85,10.0,NE,9.2,-,N/A,,Mostly Cloudy,40,2013-01-01 08:32:00
1:53 AM,-5.1,-9.0,83,30.00,10.0,NE,9.2,-,N/A,,Scattered Clouds,50,2013-01-01 08:53:00
2:53 AM,-4.0,-9.0,79,29.99,10.0,NE,8.1,-,N/A,,Clear,40,2013-01-01 09:53:00
3:53 AM,-9.0,-13.0,83,30.05,10.0,NE,6.9,-,N/A,,Clear,50,2013-01-01 10:53:00
4:53 AM,-7.1,-11.0,83,30.06,10.0,NNE,6.9,-,N/A,,Partly Cloudy,20,2013-01-01 11:53:00
5:53 AM,-7.1,-11.9,79,30.11,10.0,NE,6.9,-,N/A,,Clear,40,2013-01-01 12:53:00
6:53 AM,-5.1,-9.9,80,30.13,10.0,NE,6.9,-,N/A,,Scattered Clouds,40,2013-01-01 13:53:00
7:53 AM,-7.1,-11.9,79,30.19,10.0,NE,8.1,-,N/A,,Clear,50,2013-01-01 14:53:00
8:53 AM,-2.0,-8.0,76,30.20,10.0,NNE,4.6,-,N/A,,Overcast,20,2013-01-01 15:53:00
9:53 AM,3.9,-4.0,70,30.16,10.0,NNW,3.5,-,N/A,,Clear,340,2013-01-01 16:53:00
10:53 AM,7.0,-5.1,58,30.15,10.0,Variable,4.6,-,N/A,,Overcast,0,2013-01-01 17:53:00
11:42 AM,8.6,-5.8,52,29.96,10.0,WNW,6.9,-,N/A,,Mostly Cloudy,300,2013-01-01 18:42:00
11:50 AM,10.4,-5.8,48,29.96,10.0,North,4.6,-,N/A,,Mostly Cloudy,360,2013-01-01 18:50:00
11:53 AM,10.0,-6.0,48,30.13,10.0,North,5.8,-,N/A,,Mostly Cloudy,350,2013-01-01 18:53:00
12:49 PM,10.4,-4.0,52,29.94,10.0,NW,8.1,-,N/A,,Overcast,310,2013-01-01 19:49:00
12:53 PM,9.0,-5.1,53,30.12,10.0,North,5.8,-,N/A,,Overcast,360,2013-01-01 19:53:00
1:09 PM,8.6,-4.0,57,29.94,9.0,North,5.8,-,N/A,,Mostly Cloudy,360,2013-01-01 20:09:00
1:16 PM,8.6,-5.8,52,29.93,10.0,North,8.1,-,N/A,,Mostly Cloudy,10,2013-01-01 20:16:00
1:53 PM,10.9,-5.1,49,30.12,10.0,NNW,11.5,20.7,N/A,,Overcast,330,2013-01-01 20:53:00
2:53 PM,8.1,-4.0,58,30.15,10.0,North,8.1,-,N/A,,Overcast,360,2013-01-01 21:53:00
3:51 PM,6.8,-4.0,61,29.97,10.0,NNW,10.4,-,N/A,,Mostly Cloudy,340,2013-01-01 22:51:00
3:53 PM,7.0,-4.0,61,30.22,10.0,North,10.4,-,N/A,,Mostly Cloudy,350,2013-01-01 22:53:00
4:43 PM,3.2,-5.8,66,29.98,10.0,NNW,9.2,-,N/A,,Scattered Clouds,340,2013-01-01 23:43:00
4:53 PM,1.9,-6.0,69,30.26,10.0,NNW,8.1,-,N/A,,Partly Cloudy,340,2013-01-01 23:53:00
5:12 PM,1.4,-5.8,72,29.98,10.0,North,8.1,-,N/A,,Mostly Cloudy,350,2013-01-02 00:12:00
5:53 PM,-2.0,-7.1,79,30.30,10.0,North,5.8,-,N/A,,Mostly Cloudy,10,2013-01-02 00:53:00
6:00 PM,-2.2,-7.6,78,29.99,10.0,North,8.1,-,N/A,,Scattered Clouds,350,2013-01-02 01:00:00
6:28 PM,-4.0,-7.6,85,30.00,10.0,North,8.1,-,N/A,,Mostly Cloudy,10,2013-01-02 01:28:00
6:53 PM,-4.0,-8.0,83,30.30,10.0,NE,6.9,-,N/A,,Mostly Cloudy,40,2013-01-02 01:53:00
7:01 PM,-5.8,-9.4,84,30.00,10.0,NE,5.8,-,N/A,,Scattered Clouds,40,2013-01-02 02:01:00
7:23 PM,-5.8,-9.4,84,30.02,10.0,NNE,6.9,-,N/A,,Mostly Cloudy,30,2013-01-02 02:23:00
7:38 PM,-5.8,-9.4,84,30.02,10.0,NNE,8.1,-,N/A,,Scattered Clouds,30,2013-01-02 02:38:00
7:53 PM,-5.1,-9.9,80,30.34,10.0,NE,9.2,-,N/A,,Clear,40,2013-01-02 02:53:00
8:53 PM,-6.0,-9.9,83,30.33,10.0,NE,5.8,-,N/A,,Clear,40,2013-01-02 03:53:00
9:53 PM,-2.0,-7.1,79,30.26,10.0,NE,8.1,-,N/A,,Overcast,50,2013-01-02 04:53:00
10:53 PM,-0.9,-7.1,75,30.23,10.0,NE,8.1,-,N/A,,Overcast,40,2013-01-02 05:53:00
11:53 PM,1.0,-5.1,75,30.18,10.0,NE,4.6,-,N/A,,Overcast,50,2013-01-02 06:53:00